Location: Bühlhof
(48.7849°N, 8.6361°E)
Time: 22:18:02
(UTC+00:00)

BREEZE-M DEB (TANK) - Pass Details

Date: 19 January 2026
Orbit: 607 x 17105 km, 49.5° (Epoch: 7 February)

Event Time Altitude Azimuth Distance (km) Brightness Sun altitude
Rises 17:00:04 0° 267° (W) 4,796 9.3 -9.4°
Reaches altitude 10° 17:04:02 10° 269° (W) 2,904 7.8 -10.0°
Maximum altitude 17:09:26 81° 356° (N) 667 3.2 -10.8°
Enters shadow 17:12:22 15° 85° (E) 1,637 4.6 -11.3°
